Location: Betzi
(47.2343°N, 9.5260°E)
Time: 23:40:26
(UTC+00:00)

USA 307 - Pass Details

Date: 27 May 2022
Orbit: 552 x 554 km, 54.0° (Epoch: 17 June)

Event Time Altitude Azimuth Distance (km) Brightness Sun altitude
Exits shadow 01:43:46 - 270° (W) 1,961 5.3 -14.1°
Reaches altitude 10° 01:44:06 10° 272° (W) 1,838 5.2 -14.1°
Maximum altitude 01:48:04 41° 343° (NNW) 811 4.0 -13.7°
Drops below altitude 10° 01:52:04 10° 55° (NE) 1,845 6.7 -13.3°
Sets 01:54:24 0° 63° (ENE) 2,743 7.6 -13.1°
